Location: Downe
(51.3167°N, 0.0500°E)
Time: 10:10:10
(UTC+00:00)

ATLAS CENTAUR R/B - Pass Details

Date: 17 November 2019
Orbit: 457 x 691 km, 64.7° (Epoch: 30 November)

Event Time Altitude Azimuth Distance (km) Brightness Sun altitude
Rises 04:48:26 0° 182° (S) 3,051 5.1 -23.4°
Reaches altitude 10° 04:51:08 10° 169° (SSE) 2,136 4.5 -22.9°
Maximum altitude 04:55:01 24° 116° (ESE) 1,398 4.0 -22.3°
Drops below altitude 10° 04:58:51 10° 63° (ENE) 2,099 5.1 -21.7°
Sets 05:01:28 0° 50° (NE) 2,985 5.8 -21.3°
